Location: Corralito
(10.2667°N, 66.9500°W)
Time: 03:13:29
(UTC+00:00)

Cosmos 1331 Rocket - Pass Details

Date: 07 December 2023
Orbit: 748 x 775 km, 74.0° (Epoch: 22 February)

Event Time Altitude Azimuth Distance (km) Brightness Sun altitude
Rises 00:00:50 0° 223° (SW) 3,238 8.2 -27.3°
Reaches altitude 10° 00:03:51 10° 241° (WSW) 2,314 7.4 -28.0°
Maximum altitude 00:07:31 19° 285° (WNW) 1,763 6.4 -28.9°
Drops below altitude 10° 00:11:13 10° 330° (NNW) 2,316 6.6 -29.7°
Enters shadow 00:12:11 - 337° (NNW) 2,586 6.7 -30.0°
